Weather in Aksu-Ayuly

Kazakhstan     48°46′05″N   73°40′22″E
temp.,
°C
wind,
m/s
gust,
m/s
humid.,
%
clouds,
%
prec.,
mm/h
press.,
hPa
HPBL,
m
9 may, sun
sun900:00+16se511445 0.2 1015264
03:00+15se473698 0.1 1014136
06:00+13se4634100 0.1 101387
09:00+19sse8132678 0.0 1012617
12:00+21s91034100 0.1 10101108
15:00+17w3654100 0.3 1008348
18:00+14s41190100 6.2 1009601
21:00+12wsw598725 3.2 1010471
10 may, mon
mon1000:00+11s379181 3.2 1009177
03:00+10sse36896 0.0 1008113
06:00+10ssw499132 0.9 1009256
09:00+11wsw5684100 0.1 1010619
12:00+14w556798 0.6 10091095
15:00+15wsw6555100 0.1 10091373
18:00+14wnw446099 0.3 1010813
21:00+12nnw2477100 0.2 1012200
11 may, tue
tue1100:00+12wnw117778 0.2 101220
03:00+10ne588481 0.1 1013277
06:00+9ne61066100 0.1 1014426
09:00+9ne61163100 0.0 1016500
12:00+10ene685678 0.1 1017759
15:00+16ne563599 0.0 10162213
18:00+15ne773166 0.0 10172366
21:00+11ne5114371 0.0 1019301
12 may, wed
wed1200:00+9ne815495 0.0 1021590
03:00+7ne612580 0.0 1023359
06:00+6ne511620 0.0 1024318
09:00+11ne69460 0.0 10241349
12:00+15ne78370 0.0 10231796
15:00+16nne77335 0.0 10221959
18:00+16nne77342 0.0 10231924
21:00+12nne374770 0.0 1024120
13 may, thu
thu1300:00+10nne2252100 0.0 102417
03:00+8ne11607 0.0 102310
06:00+8nnw2260100 0.0 102210
09:00+13nnw4646100 0.0 1022990
12:00+15nnw5545100 0.0 10211838
15:00+12nnw776284 0.1 1021903
18:00+13nne566183 0.3 10211018
21:00+11nne595118 0.1 1022475